www.pogodaiklimat.ru
ПОГОДА в Коффивилле
Время
(UTC), дата
23:52 17.11
00:52 17.11
01:52 17.11
02:52 17.11
03:52 17.11
04:52 17.11
05:52 18.11
06:52 18.11
07:52 18.11
08:52 18.11
09:52 18.11
10:52 18.11
11:52 18.11
12:52 18.11
13:52 18.11
14:52 18.11
15:52 18.11
16:52 18.11
17:52 18.11
18:52 18.11
19:52 18.11
20:52 18.11
21:52 18.11
22:52 18.11
23:52 18.11
00:52 18.11
01:52 18.11
02:52 18.11
03:52 18.11
04:52 18.11
05:52 19.11
06:52 19.11
07:52 19.11
08:52 19.11
09:52 19.11
10:52 19.11
11:52 19.11
12:52 19.11
13:52 19.11
14:52 19.11
15:52 19.11
16:52 19.11
17:52 19.11
18:52 19.11
19:52 19.11
20:52 19.11
21:52 19.11
22:52 19.11
Ветер
(напр.,м/с)
Видим. Явления Облачность Т
(С)
Тd
(С)
f
(%)
Тe
(С)
Тes
(С)
Комфортность P
(гПа)
Po
(гПа)
Тmin
(С)
Tmax
(С)
R
(мм)
R24
(мм)
S
(см)
СЗ 1 16 км ясно +8.3 0.0 56 +7 +7 1015.5 987.8
СЗ 1 16 км ясно +5.6 0.0 67 +4 +4 1016.0 988.2
СЗ 2 16 км ясно +4.4 -0.6 70 +1 +1 1015.9 988.2
0 16 км ясно +1.7 -0.6 85 +1 +1 1015.8 988.2
ЮВ 2 16 км ясно +1.1 -1.1 85 -3 -3 1015.4 987.8
Ю 1 16 км ясно +1.1 -1.1 85 -2 -2 1015.3 987.8 +0.6 +10.0
Ю 1 16 км ясно +1.1 -1.1 85 -2 -2 1014.8 987.2
0 16 км ясно -0.6 -2.2 89 -2 -2 1014.2 986.5
0 16 км ясно -1.1 -2.2 92 -2 -2 1013.7 986.2
0 16 км ясно -0.6 -2.2 89 -2 -2 1012.9 985.2
Ю 2 16 км ясно +1.1 -0.6 88 -3 -3 1012.8 985.2
Ю 2 16 км ясно +1.7 -0.6 85 -2 -2 1012.2 984.6 -1.1 +1.7
Ю 3 16 км ясно +1.1 -0.6 88 -3 -3 1012.2 984.6
Ю 4 16 км 2/0 2850 м
[средняя]
+2.2 0.0 85 -3 -3 1012.0 984.2
Ю 4 16 км 8/0 2850 м
[средняя]
+7.2 +1.7 68 +3 +4 1011.4 983.9
Ю 4 16 км 10/0 2700 м
[средняя]
+8.9 +1.7 61 +6 +6 1010.9 983.2
Ю 5 16 км 10/0 2700 м
[средняя]
+11.1 +1.1 50 +8 +9 1010.1 982.6
ЮЗ 5 16 км 10/0 2700 м
[средняя]
+14.4 +1.7 42 +13 +13 1008.9 981.6 +1.1 +14.4
ЮЗ 2 16 км 10/0 2700 м
[средняя]
+16.1 +1.7 38 +16 +18 1007.9 980.6
З 4
{8}
16 км 8/0 2550 м
[средняя]
+19.4 +2.8 33 +20 +21 1007.0 979.6
ЮЗ 4 16 км 10/0 2700 м
[средняя]
+20.0 +2.2 31 +20 +21 1006.7 979.6
З 4 16 км 2/0 2550 м
[средняя]
+20.0 +1.7 30 +20 +21 1006.9 979.6
З 3 8 км мгла ясно +17.8 +1.7 34 +18 +19 1007.1 979.9
0 16 км ясно +13.9 +1.7 44 +14 +14 1007.7 980.3 +12.2 +20.6
З 2 16 км ясно +12.2 +1.7 49 +11 +11 1008.6 981.3
З 2 16 км ясно +11.1 +2.2 54 +10 +10 1008.8 981.3
З 3 16 км ясно +11.1 +3.3 59 +9 +9 1008.9 981.6
СЗ 3 16 км ясно +12.8 +4.4 57 +11 +11 1009.5 982.2
СЗ 4 16 км ясно +12.8 +4.4 57 +11 +11 1009.8 982.6
СЗ 3 16 км ясно +11.7 +3.3 56 +10 +10 1010.2 982.9 +8.9 +15.6
СЗ 4 16 км ясно +10.0 +2.8 61 +8 +8 1010.8 983.6
СЗ 3 16 км ясно +10.0 +1.7 56 +8 +8 1011.3 984.2
СЗ 1 16 км ясно +7.2 +0.6 63 +6 +6 1011.5 984.6
З 2 16 км ясно +5.6 +0.6 70 +3 +3 1011.9 984.6
СЗ 3 16 км ясно +3.9 0.0 76 0 0 1012.6 985.2
З 2 16 км ясно +4.4 0.0 73 +1 +1 1013.1 985.5 +3.9 +11.1
0 16 км ясно +3.9 -0.6 72 +3 +3 1013.6 986.2
0 16 км ясно +3.9 +0.6 79 +3 +3 1014.8 987.2
0 16 км ясно +9.4 +2.2 61 +9 +9 1014.9 987.5
0 16 км ясно +12.2 +2.8 53 +12 +14 1015.7 988.5
0 16 км ясно +15.0 +3.9 47 +15 +20 1015.8 988.5
0 16 км ясно +16.7 +2.8 39 +17 +24 1014.9 987.8 +1.1 +17.2
Ю 1 16 км ясно +18.3 +1.7 33 +19 +26 1014.1 986.9
Ю 3 16 км ясно +19.4 +2.2 32 +20 +24 1013.1 985.9
ЮВ 4 16 км ясно +20.0 0.0 26 +20 +23 1012.7 985.5
ЮВ 3 16 км ясно +19.4 +0.6 28 +20 +22 1012.7 985.5
ЮВ 4 16 км ясно +16.7 +2.8 39 +16 +17 1012.6 985.2
В 2 16 км ясно +13.3 +2.2 47 +13 +13 1012.8 985.5 +13.3 +20.6
Местоположение метеостанции Coffeyville Municipal Airport: широта 37.0911 долгота -95.5664 высота над уровнем моря 229 м.
В архиве по умолчанию представлена погода в Коффивилле за последние 1-2 суток. Обновление информации о фактической погоде в базе происходит ежечасно! Архивные данные за месяц целиком и за предыдущие месяцы Вы можете получить, выбрав интересующий диапазон дат из раскрывающегося списка и нажав кнопку "Ввод!".
Внимание! Архив погоды МЕТАР в базе сайта по станциям, не включенным в климатический монитор, хранится не более 60 дней. Нет смысла пытаться выбрать более раннюю дату.
*Определитесь, кто Вы:
Внимание! Время в таблицах - всемирное. Для получения местного времени необходимо прибавить поправку, которая равна ч.
Смотрите также архив погоды в соседних городах и на ближайших метеорологических станциях:
Партнеры нашего сайта:      
Пояснения к столбцам:
  • Ветер - указаны скорость ветра в м/с - средняя за 10 мин, порывы в срок и между сроками (в фигурных скобках) и направление, откуда дует ветер: С - северный,
  • СВ - северо-восточный, В - восточный, ЮВ - юго-восточный, Ю - южный, ЮЗ - юго-западный, З - западный, СЗ - северо-западный.
  • Видимость - горизонтальная дальность видимости в метрах или километрах. При видимости от 1 до 10 км при отсутствии осадков обычно наблюдается дымка, при ухудшении видимости до 1 км и менее - туман. В сухую погоду видимость может ухудшаться дымом, пылью или мглою.
  • Явления - указаны атмосферные явления, наблюдавшиеся в срок или в последний час перед сроком; фигурными скобками обозначены явления, наблюдавшиеся между сроками (за 1-3 часа до срока); квадратными скобками обозначены град или гололедные отложения с указанием их диаметра в мм.
  • Облачность - указаны через наклонную черту общая и нижняя облачность в баллах и высота нижней границы облаков в метрах; квадратными скобками обозначены формы облаков: Ci - перистые, Cs - перисто-слоистые, Cc - перисто-кучевые, Ac - высококучевые, As - высокослоистые, Sc - слоисто-кучевые, Ns - слоисто-дождевые, Cu - кучевые, Cb - кучево-дождевые. Подробнее классификацию облаков см. в Атласе облаков (PDF).
  • T - Температура воздуха - температура, измеренная на высоте 2 м над землей.
  • Td - Температура точки росы - температура, при понижении до которой содержащийся в воздухе водяной пар достигнет насыщения.
  • f - Относительная влажность воздуха - влажноcть воздуха, измеренная на высоте 2 м над землей.
  • Te - Эффективная температура - температура, которую ощущает одетый по сезону человек в тени. Характеристика душности погоды. При расчете учитывается влияние влажности воздуха и скорости ветра на теплоощущения человека.
  • Tes - Эффективная температура на солнце - температура, которую ощущает человек, с поправкой на солнечный нагрев. Характеристика знойности погоды. Зависит от высоты солнца над горизонтом, облачности и скорости ветра. Ночью, в пасмурную погоду, а также при ветре 12 м/с и более поправка равна нулю.
  • P - Атмосферное давление - приведенное к уровню моря атмосферное давление.
  • Po - Атмосферное давление - измеренное на уровне метеостанции атмосферное давление.
  • Tmin - Минимальная температура - минимум температуры воздуха на высоте 2 м над землей.
  • Tmax - Максимальная температура - максимум температуры воздуха на высоте 2 м над землей.
  • R - Количество осадков - Количество выпавших осадков за период времени, мм. При наведении курсора мыши на число - период времени, за который выпало указанное количество осадков.
  • R24 - Количество осадков - Количество выпавших осадков за 24 часа, мм.
  • S - Снежный покров - Высота снежного покрова, см. При наведении курсора мыши на число - состояние снежного покрова и степень покрытия местности в баллах.